Tracking 30922 objects as of 2-Jul-2025
HD Live streaming from Space Station
objects crossing your sky now

COSMOS 2251 DEB

Track COSMOS 2251 DEB now!
10-day predictions


NORAD ID: 34037
Int'l Code: 1993-036HY
Perigee: 745.9 km
Apogee: 824.7 km
Inclination: 74.1 °
Period: 100.4 minutes
Semi major axis: 7156 km
RCS: 0.0548 m2 (small)
Launch date: June 16, 1993
Source: Commonwealth of Independent States (former USSR) (CIS)
Launch site: PLESETSK MISSILE AND SPACE COMPLEX (PKMTR)

Note: This is SATELLITE DEBRIS
Your satellite tracking list
STARLINK-1323
Track 1 satellite(s)




NASA's NSSDC Master Catalog

Two Line Element Set (TLE):
1 34037U 93036HY  25182.55082040  .00000977  00000-0  35256-3 0  9997
2 34037  74.0515 350.7706 0055027  81.9132 278.8258 14.34065584853783
Source of the keplerian elements: AFSPC